Location: Hermaringen
(48.5952°N, 10.2585°E)
Time: 06:20:50
(UTC+00:00)

Cosmos 1484 Rocket - Pass Details

Date: 18 November 2025
Orbit: 442 x 473 km, 97.6° (Epoch: 10 December)

Event Time Altitude Azimuth Distance (km) Brightness Sun altitude
Rises 16:25:36 0° 180° (S) 2,500 6.5 -8.3°
Reaches altitude 10° 16:27:42 10° 187° (S) 1,633 5.6 -8.6°
Maximum altitude 16:31:04 43° 261° (W) 677 3.9 -9.2°
Drops below altitude 10° 16:34:29 10° 334° (NNW) 1,658 5.4 -9.7°
Sets 16:36:38 0° 341° (NNW) 2,544 6.2 -10.0°
